Location: Unspecified
(0.0000°N, 0.0000°E)
Time: 07:25:11
(UTC+00:00)

STARLINK-2648 - Pass Details

Date: 12 June 2021
Orbit: 348 x 351 km, 53.0° (Epoch: 20 June)

Event Time Altitude Azimuth Distance (km) Brightness Sun altitude
Exits shadow 04:33:10 - 151° (SSE) 1,427 5.8 -19.9°
Reaches altitude 10° 04:34:09 10° 134° (SE) 1,302 5.8 -19.6°
Maximum altitude 04:34:35 10° 125° (SE) 1,288 5.9 -19.5°
Drops below altitude 10° 04:35:02 10° 116° (ESE) 1,301 6.0 -19.4°
Sets 04:38:35 0° 70° (ENE) 2,138 8.3 -18.6°
